| time (UTC) | temp C | wind direction | speed KPH | gust KPH | rain 1hr cm | rain 24hr cm | rain mn cm | humidity % | barometer mb |
| 20260504110548 | 6 | 339 | 0.0 | 6.4 | 0.00 | 0.00 | 0.00 | 53 | 1007.4 |
| 20260504100542 | 7 | 360 | 6.4 | 9.7 | 0.00 | 0.00 | 0.00 | 50 | 1007.0 |
| 20260504081558 | 10 | 312 | 4.8 | 12.9 | 0.00 | 0.00 | 0.00 | 55 | 1006.0 |
| 20260504081053 | 10 | 327 | 0.0 | 6.4 | 0.00 | 0.00 | 0.00 | 53 | 1006.0 |
| 20260504080553 | 10 | 344 | 1.6 | 6.4 | 0.00 | 0.00 | 0.00 | 51 | 1005.7 |
| 20260504070154 | 11 | 13 | 11.3 | 22.5 | 0.00 | 0.00 | 0.00 | 44 | 1004.8 |
| 20260504060141 | 10 | 16 | 3.2 | 4.8 | 0.00 | 0.00 | 0.00 | 50 | 1003.7 |
| 20260504050543 | 11 | 13 | 3.2 | 6.4 | 0.00 | 0.00 | 0.00 | 46 | 1003.1 |
| 20260504050144 | 11 | 13 | 4.8 | 6.4 | 0.00 | 0.00 | 0.00 | 44 | 1003.2 |
| 20260504045541 | 12 | 12 | 4.8 | 6.4 | 0.00 | 0.00 | 0.00 | 44 | 1003.2 |
| 20260504045039 | 12 | 5 | 3.2 | 6.4 | 0.00 | 0.00 | 0.00 | 43 | 1003.2 |
| 20260504044542 | 12 | 5 | 4.8 | 6.4 | 0.00 | 0.00 | 0.00 | 43 | 1003.2 |
| 20260504044039 | 13 | 5 | 4.8 | 6.4 | 0.00 | 0.00 | 0.00 | 42 | 1003.2 |
| 20260504043539 | 13 | 5 | 4.8 | 6.4 | 0.00 | 0.00 | 0.00 | 41 | 1003.1 |
| 20260504043040 | 14 | 5 | 3.2 | 12.9 | 0.00 | 0.00 | 0.00 | 40 | 1003.0 |
| 20260504042539 | 14 | 5 | 4.8 | 14.5 | 0.00 | 0.00 | 0.00 | 39 | 1003.0 |
| 20260504042043 | 15 | 355 | 6.4 | 16.1 | 0.00 | 0.00 | 0.00 | 39 | 1002.9 |
| 20260504041539 | 15 | 11 | 9.7 | 19.3 | 0.00 | 0.00 | 0.00 | 38 | 1002.9 |
| 20260504041041 | 15 | 17 | 9.7 | 22.5 | 0.00 | 0.00 | 0.00 | 38 | 1002.6 |
| 20260504040539 | 16 | 34 | 11.3 | 29.0 | 0.00 | 0.00 | 0.00 | 37 | 1002.5 |
| 20260504040140 | 16 | 26 | 14.5 | 29.0 | 0.00 | 0.00 | 0.00 | 36 | 1002.4 |
| 20260504035541 | 17 | 22 | 16.1 | 29.0 | 0.00 | 0.00 | 0.00 | 35 | 1002.2 |
| 20260504035042 | 17 | 5 | 19.3 | 35.4 | 0.00 | 0.00 | 0.00 | 34 | 1002.1 |
| 20260504034542 | 18 | 360 | 8.0 | 24.1 | 0.00 | 0.00 | 0.00 | 34 | 1001.9 |
| 20260504034039 | 18 | 319 | 9.7 | 16.1 | 0.00 | 0.00 | 0.00 | 34 | 1001.5 |
| 20260504033539 | 18 | 327 | 8.0 | 17.7 | 0.00 | 0.00 | 0.00 | 34 | 1001.2 |
| 20260504033041 | 18 | 317 | 6.4 | 17.7 | 0.00 | 0.00 | 0.00 | 34 | 1001.3 |
| 20260504032539 | 18 | 311 | 8.0 | 14.5 | 0.00 | 0.00 | 0.00 | 35 | 1001.3 |
| 20260504032039 | 18 | 315 | 4.8 | 14.5 | 0.00 | 0.00 | 0.00 | 35 | 1001.2 |
| 20260504031539 | 18 | 298 | 4.8 | 16.1 | 0.00 | 0.00 | 0.00 | 35 | 1001.2 |
| 20260504031038 | 18 | 302 | 4.8 | 16.1 | 0.00 | 0.00 | 0.00 | 35 | 1001.0 |
| 20260504030540 | 18 | 281 | 6.4 | 12.9 | 0.00 | 0.00 | 0.00 | 35 | 1001.1 |
| 20260504025540 | 18 | 308 | 4.8 | 14.5 | 0.00 | 0.00 | 0.00 | 34 | 1001.1 |
| 20260504025040 | 18 | 306 | 3.2 | 14.5 | 0.00 | 0.00 | 0.00 | 33 | 1001.2 |
| 20260504024539 | 18 | 316 | 1.6 | 9.7 | 0.00 | 0.00 | 0.00 | 32 | 1001.0 |
| 20260504024039 | 19 | 310 | 3.2 | 14.5 | 0.00 | 0.00 | 0.00 | 31 | 1001.1 |
| 20260504023538 | 20 | 285 | 4.8 | 14.5 | 0.00 | 0.00 | 0.00 | 30 | 1001.0 |
| 20260504023039 | 20 | 299 | 6.4 | 16.1 | 0.00 | 0.00 | 0.00 | 29 | 1001.0 |
| 20260504022538 | 20 | 289 | 8.0 | 20.9 | 0.00 | 0.00 | 0.00 | 29 | 1000.9 |
| 20260504022039 | 20 | 333 | 8.0 | 20.9 | 0.00 | 0.00 | 0.00 | 28 | 1001.1 |
| 20260504021537 | 20 | 310 | 4.8 | 16.1 | 0.00 | 0.00 | 0.00 | 27 | 1000.9 |
| 20260504021038 | 21 | 348 | 6.4 | 27.4 | 0.00 | 0.00 | 0.00 | 26 | 1000.8 |
| 20260504020539 | 21 | 302 | 12.9 | 30.6 | 0.00 | 0.00 | 0.00 | 26 | 1000.6 |
| 20260504015535 | 21 | 286 | 9.7 | 20.9 | 0.00 | 0.00 | 0.00 | 25 | 1000.6 |
| 20260504015036 | 21 | 277 | 8.0 | 22.5 | 0.00 | 0.00 | 0.00 | 25 | 1000.6 |
| 20260504014541 | 21 | 249 | 9.7 | 22.5 | 0.00 | 0.00 | 0.00 | 24 | 1000.6 |
| 20260504014035 | 21 | 299 | 11.3 | 20.9 | 0.00 | 0.00 | 0.00 | 24 | 1000.8 |
| 20260504013533 | 21 | 279 | 11.3 | 25.7 | 0.00 | 0.00 | 0.00 | 24 | 1000.8 |
| 20260504013034 | 21 | 279 | 11.3 | 25.7 | 0.00 | 0.00 | 0.00 | 25 | 1000.8 |
| 20260504012532 | 21 | 284 | 8.0 | 19.3 | 0.00 | 0.00 | 0.00 | 27 | 1000.9 |
| 20260504012032 | 21 | 296 | 8.0 | 19.3 | 0.00 | 0.00 | 0.00 | 28 | 1001.0 |
| 20260504011531 | 22 | 273 | 6.4 | 20.9 | 0.00 | 0.00 | 0.00 | 28 | 1000.9 |
| 20260504011030 | 22 | 267 | 12.9 | 20.9 | 0.00 | 0.00 | 0.00 | 28 | 1001.1 |
| 20260504010530 | 22 | 268 | 8.0 | 20.9 | 0.00 | 0.00 | 0.00 | 28 | 1001.1 |
| 20260504010132 | 22 | 265 | 6.4 | 30.6 | 0.00 | 0.00 | 0.00 | 27 | 1001.1 |
| 20260504005529 | 22 | 270 | 9.7 | 30.6 | 0.00 | 0.00 | 0.00 | 27 | 1001.1 |
| 20260504005028 | 22 | 248 | 12.9 | 17.7 | 0.00 | 0.00 | 0.00 | 27 | 1001.2 |
| 20260504004528 | 23 | 256 | 11.3 | 25.7 | 0.00 | 0.00 | 0.00 | 27 | 1001.2 |
| 20260504004027 | 23 | 240 | 11.3 | 25.7 | 0.00 | 0.00 | 0.00 | 27 | 1001.3 |
| 20260504003527 | 22 | 262 | 11.3 | 29.0 | 0.00 | 0.00 | 0.00 | 26 | 1001.3 |
| 20260504003027 | 23 | 230 | 14.5 | 33.8 | 0.00 | 0.00 | 0.00 | 26 | 1001.3 |
| 20260504002527 | 23 | 278 | 17.7 | 33.8 | 0.00 | 0.00 | 0.00 | 26 | 1001.4 |
| 20260504002026 | 23 | 263 | 11.3 | 27.4 | 0.00 | 0.00 | 0.00 | 26 | 1001.5 |
| 20260504001526 | 23 | 296 | 11.3 | 27.4 | 0.00 | 0.00 | 0.00 | 25 | 1001.6 |
| 20260504001026 | 23 | 269 | 16.1 | 24.1 | 0.00 | 0.00 | 0.00 | 24 | 1001.7 |
| 20260504000524 | 23 | 281 | 11.3 | 22.5 | 0.00 | 0.00 | 0.00 | 24 | 1001.7 |
| 20260504000127 | 23 | 259 | 14.5 | 30.6 | 0.00 | 0.00 | 0.00 | 23 | 1001.8 |
| 20260503235525 | 23 | 256 | 16.1 | 30.6 | 0.00 | 0.00 | 0.00 | 23 | 1001.7 |
| 20260503235025 | 23 | 311 | 12.9 | 30.6 | 0.00 | 0.00 | 0.00 | 22 | 1001.9 |
| 20260503234538 | 24 | 234 | 11.3 | 22.5 | 0.00 | 0.00 | 0.00 | 23 | 1001.9 |
| 20260503234024 | 23 | 286 | 11.3 | 27.4 | 0.00 | 0.00 | 0.00 | 24 | 1002.1 |
| 20260503233523 | 23 | 242 | 14.5 | 29.0 | 0.00 | 0.00 | 0.00 | 23 | 1002.0 |
| 20260503233024 | 23 | 279 | 17.7 | 29.0 | 0.00 | 0.00 | 0.00 | 23 | 1002.2 |
| 20260503232523 | 24 | 292 | 14.5 | 27.4 | 0.00 | 0.00 | 0.00 | 23 | 1002.4 |
| 20260503232022 | 24 | 266 | 14.5 | 30.6 | 0.00 | 0.00 | 0.00 | 22 | 1002.5 |
| 20260503231522 | 24 | 319 | 14.5 | 30.6 | 0.00 | 0.00 | 0.00 | 21 | 1002.4 |
| 20260503231024 | 24 | 237 | 12.9 | 37.0 | 0.00 | 0.00 | 0.00 | 22 | 1002.8 |
| 20260503230522 | 24 | 262 | 16.1 | 37.0 | 0.00 | 0.00 | 0.00 | 20 | 1002.8 |
| 20260503230121 | 24 | 296 | 17.7 | 32.2 | 0.00 | 0.00 | 0.00 | 18 | 1002.9 |
| 20260503225521 | 24 | 275 | 14.5 | 29.0 | 0.00 | 0.00 | 0.00 | 18 | 1002.8 |
| 20260503225018 | 24 | 275 | 12.9 | 30.6 | 0.00 | 0.00 | 0.00 | 19 | 1003.2 |
| 20260503224518 | 24 | 287 | 14.5 | 30.6 | 0.00 | 0.00 | 0.00 | 19 | 1003.3 |
| 20260503224018 | 24 | 277 | 17.7 | 32.2 | 0.00 | 0.00 | 0.00 | 18 | 1003.2 |
| 20260503223521 | 24 | 300 | 14.5 | 27.4 | 0.00 | 0.00 | 0.00 | 18 | 1003.1 |
| 20260503223018 | 25 | 268 | 16.1 | 33.8 | 0.00 | 0.00 | 0.00 | 20 | 1003.3 |
| 20260503222516 | 25 | 290 | 14.5 | 33.8 | 0.00 | 0.00 | 0.00 | 18 | 1003.3 |
| 20260503222019 | 24 | 260 | 14.5 | 33.8 | 0.00 | 0.00 | 0.00 | 21 | 1003.4 |
| 20260503221516 | 23 | 258 | 16.1 | 33.8 | 0.00 | 0.00 | 0.00 | 22 | 1003.5 |
| 20260503221018 | 24 | 265 | 14.5 | 29.0 | 0.00 | 0.00 | 0.00 | 22 | 1003.4 |
| 20260503220517 | 25 | 317 | 12.9 | 24.1 | 0.00 | 0.00 | 0.00 | 19 | 1003.6 |
| 20260503220113 | 23 | 278 | 11.3 | 25.7 | 0.00 | 0.00 | 0.00 | 22 | 1003.5 |
| 20260503215517 | 23 | 299 | 9.7 | 27.4 | 0.00 | 0.00 | 0.00 | 22 | 1003.7 |
| 20260503215015 | 23 | 266 | 14.5 | 27.4 | 0.00 | 0.00 | 0.00 | 22 | 1003.9 |
| 20260503214513 | 23 | 288 | 9.7 | 32.2 | 0.00 | 0.00 | 0.00 | 23 | 1003.8 |
| 20260503214012 | 24 | 304 | 16.1 | 40.2 | 0.00 | 0.00 | 0.00 | 23 | 1003.8 |
| 20260503213514 | 24 | 246 | 16.1 | 40.2 | 0.00 | 0.00 | 0.00 | 24 | 1003.9 |
| 20260503213012 | 24 | 256 | 11.3 | 32.2 | 0.00 | 0.00 | 0.00 | 26 | 1004.1 |
| 20260503212510 | 24 | 286 | 19.3 | 30.6 | 0.00 | 0.00 | 0.00 | 25 | 1004.1 |
| 20260503212010 | 23 | 277 | 14.5 | 33.8 | 0.00 | 0.00 | 0.00 | 27 | 1004.2 |
| 20260503211508 | 23 | 225 | 16.1 | 33.8 | 0.00 | 0.00 | 0.00 | 25 | 1004.3 |
| 20260503211007 | 23 | 259 | 14.5 | 33.8 | 0.00 | 0.00 | 0.00 | 26 | 1004.4 |
| 20260503210508 | 23 | 278 | 16.1 | 33.8 | 0.00 | 0.00 | 0.00 | 25 | 1004.5 |
| 20260503210107 | 24 | 292 | 16.1 | 45.1 | 0.00 | 0.00 | 0.00 | 26 | 1004.6 |
| 20260503205508 | 24 | 250 | 16.1 | 45.1 | 0.00 | 0.00 | 0.00 | 27 | 1004.7 |
| 20260503205008 | 24 | 242 | 25.7 | 45.1 | 0.00 | 0.00 | 0.00 | 26 | 1004.7 |
| 20260503204507 | 24 | 233 | 12.9 | 37.0 | 0.00 | 0.00 | 0.00 | 27 | 1004.8 |
| 20260503204009 | 25 | 231 | 19.3 | 37.0 | 0.00 | 0.00 | 0.00 | 25 | 1005.1 |
| 20260503203504 | 24 | 234 | 16.1 | 30.6 | 0.00 | 0.00 | 0.00 | 27 | 1005.1 |
| 20260503203006 | 24 | 284 | 14.5 | 25.7 | 0.00 | 0.00 | 0.00 | 26 | 1005.4 |
| 20260503202503 | 23 | 286 | 11.3 | 27.4 | 0.00 | 0.00 | 0.00 | 29 | 1005.4 |
| 20260503202002 | 24 | 239 | 14.5 | 27.4 | 0.00 | 0.00 | 0.00 | 28 | 1005.5 |
| 20260503201501 | 24 | 259 | 12.9 | 41.8 | 0.00 | 0.00 | 0.00 | 28 | 1005.6 |
| 20260503201003 | 23 | 266 | 20.9 | 41.8 | 0.00 | 0.00 | 0.00 | 28 | 1005.7 |
| 20260503200501 | 23 | 236 | 19.3 | 37.0 | 0.00 | 0.00 | 0.00 | 28 | 1005.6 |
| 20260503200104 | 23 | 250 | 16.1 | 37.0 | 0.00 | 0.00 | 0.00 | 28 | 1005.8 |
| 20260503195057 | 23 | 250 | 20.9 | 30.6 | 0.00 | 0.00 | 0.00 | 28 | 1006.0 |
| 20260503194557 | 24 | 286 | 16.1 | 54.7 | 0.00 | 0.00 | 0.00 | 28 | 1006.2 |
| 20260503194058 | 23 | 256 | 17.7 | 54.7 | 0.00 | 0.00 | 0.00 | 28 | 1006.1 |
| 20260503193555 | 23 | 286 | 12.9 | 27.4 | 0.00 | 0.00 | 0.00 | 27 | 1006.4 |
| 20260503193106 | 23 | 250 | 12.9 | 40.2 | 0.00 | 0.00 | 0.00 | 28 | 1006.5 |
| 20260503192554 | 23 | 240 | 17.7 | 40.2 | 0.00 | 0.00 | 0.00 | 27 | 1006.7 |
| 20260503192052 | 23 | 268 | 14.5 | 30.6 | 0.00 | 0.00 | 0.00 | 28 | 1006.8 |
| 20260503191552 | 23 | 238 | 16.1 | 30.6 | 0.00 | 0.00 | 0.00 | 27 | 1006.9 |
| 20260503191054 | 23 | 238 | 14.5 | 33.8 | 0.00 | 0.00 | 0.00 | 28 | 1007.0 |
| 20260503190549 | 23 | 249 | 17.7 | 38.6 | 0.00 | 0.00 | 0.00 | 29 | 1007.1 |
| 20260503190051 | 23 | 273 | 17.7 | 35.4 | 0.00 | 0.00 | 0.00 | 29 | 1007.3 |
| 20260503185053 | 23 | 285 | 16.1 | 40.2 | 0.00 | 0.00 | 0.00 | 27 | 1007.6 |
| 20260503184604 | 23 | 275 | 20.9 | 40.2 | 0.00 | 0.00 | 0.00 | 29 | 1007.6 |
| 20260503184049 | 23 | 239 | 11.3 | 25.7 | 0.00 | 0.00 | 0.00 | 30 | 1007.8 |
| 20260503183550 | 22 | 271 | 11.3 | 32.2 | 0.00 | 0.00 | 0.00 | 30 | 1007.7 |
| 20260503183058 | 22 | 254 | 17.7 | 30.6 | 0.00 | 0.00 | 0.00 | 29 | 1007.8 |
| 20260503182551 | 23 | 227 | 11.3 | 29.0 | 0.00 | 0.00 | 0.00 | 29 | 1007.9 |
| 20260503182048 | 22 | 244 | 16.1 | 29.0 | 0.00 | 0.00 | 0.00 | 31 | 1008.0 |
| 20260503181549 | 22 | 238 | 11.3 | 22.5 | 0.00 | 0.00 | 0.00 | 32 | 1008.2 |
| 20260503181047 | 22 | 264 | 12.9 | 25.7 | 0.00 | 0.00 | 0.00 | 29 | 1008.2 |
| 20260503180544 | 22 | 304 | 11.3 | 25.7 | 0.00 | 0.00 | 0.00 | 30 | 1008.4 |
| 20260503180044 | 22 | 263 | 12.9 | 27.4 | 0.00 | 0.00 | 0.00 | 30 | 1008.5 |
| 20260503175043 | 22 | 269 | 16.1 | 27.4 | 0.00 | 0.00 | 0.00 | 30 | 1008.8 |
| 20260503174543 | 21 | 259 | 11.3 | 32.2 | 0.00 | 0.00 | 0.00 | 32 | 1008.9 |
| 20260503174042 | 21 | 254 | 16.1 | 38.6 | 0.00 | 0.00 | 0.00 | 32 | 1009.1 |
| 20260503173541 | 21 | 245 | 14.5 | 38.6 | 0.00 | 0.00 | 0.00 | 30 | 1009.1 |
| 20260503173042 | 21 | 243 | 19.3 | 29.0 | 0.00 | 0.00 | 0.00 | 31 | 1009.3 |
| 20260503172543 | 21 | 276 | 11.3 | 20.9 | 0.00 | 0.00 | 0.00 | 31 | 1009.4 |
| 20260503172038 | 21 | 299 | 11.3 | 20.9 | 0.00 | 0.00 | 0.00 | 32 | 1009.7 |
| 20260503171537 | 20 | 282 | 9.7 | 38.6 | 0.00 | 0.00 | 0.00 | 32 | 1009.8 |
| 20260503171036 | 21 | 249 | 19.3 | 38.6 | 0.00 | 0.00 | 0.00 | 32 | 1009.9 |
| 20260503170536 | 21 | 260 | 11.3 | 37.0 | 0.00 | 0.00 | 0.00 | 33 | 1009.9 |
| 20260503170136 | 20 | 248 | 29.0 | 40.2 | 0.00 | 0.00 | 0.00 | 33 | 1010.1 |
| 20260503151012 | 15 | 223 | 11.3 | 19.3 | 0.00 | 0.00 | 0.00 | 43 | 1011.9 |
| 20260503150511 | 14 | 194 | 12.9 | 19.3 | 0.00 | 0.00 | 0.00 | 43 | 1012.0 |
| 20260503131048 | 6 | 205 | 14.5 | 19.3 | 0.00 | 0.00 | 0.00 | 63 | 1012.7 |
| 20260503130548 | 6 | 208 | 12.9 | 19.3 | 0.00 | 0.00 | 0.00 | 64 | 1012.6 |